Flag for Austria Weather past 2 weeks in Bruck an der Leitha, Lower Austria, Austria

Now
61 °F

Thundershowers. Low clouds.


Feels Like: 61 °F
Forecast: 51 / 65 °F
Wind: 3 mph from Southeast

Location: Wien / Schwechat-Flughafen

Current Time: Aug 23, 2014 at 5:40:52 PM

Latest Report: Aug 23, 2014 at 5:00 PM


Visibility: 0 mi

Pressure: 29.92 "Hg

Humidity: 91%

Dew point: 59 °F

Location of Bruck an der LeithaLocation

Historic Weather in Bruck an der Leitha — Graph

°F

Bruck an der Leitha temperature yesterday

Maximum temperature yesterday: 71 °F (at 4:00 PM)
Minimum temperature yesterday: 55 °F (at 4:00 AM)
Average temperature yesterday: 62 °F

Past Weeks' High & Low Weather Summary

 TemperatureHumidityPressure
High86 °F (Aug 9, 3:00 PM)98% (Aug 21, 5:00 AM)30.08 "Hg (Aug 21, 5:00 AM)
Low53 °F (Aug 18, 6:00 AM)37% (Aug 15, 2:00 PM)29.65 "Hg (Aug 13, 10:00 PM)
Average66 °F74%29.95 "Hg
* Reported Aug 8 4:00 PM — Aug 23 4:00 PM, Bruck an der Leitha, Weather by CustomWeather, © 2014

Note: Actual official high and low records may vary slightly from our data, if they occured in-between our weather recording intervals... More about our weather records

Advertising

Bruck an der Leitha weather history for previous 24 hours

 ConditionsComfort  
Time TempWeatherWind HumidityBarometerVisibility
4:00 PM
Aug 23
70 °FOvercast.N/A73%29.89 "Hg13 mi
3:00 PM70 °FOvercast.3 mph70%29.91 "Hg12 mi
2:00 PM71 °FOvercast.5 mph71%29.93 "Hg11 mi
1:00 PM71 °FPartly sunny.5 mph72%29.95 "Hg6 mi
12:00 PM69 °FPartly sunny.N/A70%29.97 "Hg16 mi
11:00 AM67 °FPartly sunny.N/A69%29.98 "Hg22 mi
10:00 AM65 °FPartly sunny.N/A81%29.99 "Hg11 mi
9:00 AM62 °FPartly sunny.N/A89%30.00 "Hg6 mi
8:00 AM61 °FLight rain. Scattered clouds.N/A91%29.99 "Hg1 mi
7:00 AM57 °FLight rain. Scattered clouds.N/A94%29.99 "Hg0 mi
6:00 AM56 °FScattered clouds.N/A95%29.98 "Hg3 mi
5:00 AM57 °FPassing clouds.N/A95%29.98 "Hg6 mi
4:00 AM59 °FPassing clouds.N/A94%29.98 "Hg9 mi
3:00 AM60 °FPassing clouds.N/A93%29.98 "Hg8 mi
2:00 AM62 °FOvercast.N/A88%29.98 "Hg16 mi
1:00 AM62 °FLight rain. Overcast.6 mph92%29.97 "Hg15 mi
12:00 AM63 °FLight rain. Overcast.N/A84%29.97 "Hg17 mi
11:00 PM
Aug 22
63 °FOvercast.3 mph84%29.98 "Hg22 mi
10:00 PM64 °FPassing clouds.6 mph81%29.97 "Hg28 mi
9:00 PM64 °FPassing clouds.5 mph78%29.98 "Hg28 mi
8:00 PM66 °FPassing clouds.5 mph72%29.96 "Hg28 mi
7:00 PM68 °FScattered clouds.7 mph65%29.96 "Hg11 mi
6:00 PM69 °FScattered clouds.7 mph61%29.96 "Hg19 mi
5:00 PM70 °FPassing clouds.6 mph56%29.97 "Hg16 mi
Weather by CustomWeather, © 2014

See weather overviewHow to use our weather pages